contact:dominique.lefevre@mio.osupytheas.fr, maurice.libes@osupytheas.fr, didier.mallarino@osupytheas.fr
Project:EMSO http://www.emso-fr.org/EMSO-France
Depth: 2436.0 m
Title:EMSO Ligure Ouest : Data MII capteur MICROCAT
DateTime_Computer,Latitude,Longitude,Temperature,Conductivity,Pressure,DateTime_Instrument
DateTime_Computer,Latitude,Longitude,degC,S m-1,dbar,DateTime_Instrument
2019-07-25T00:02:56Z,42.805,6.029,13.2955,4.59954,2469.993,2019-7-25T02:03:15Z
2019-07-25T00:06:00Z,42.805,6.029,13.2958,4.59952,2469.947,2019-7-25T02:06:19Z
2019-07-25T00:09:03Z,42.805,6.029,13.2957,4.59953,2469.97,2019-7-25T02:09:22Z
2019-07-25T00:12:06Z,42.805,6.029,13.2957,4.59952,2469.96,2019-7-25T02:12:25Z
2019-07-25T00:15:09Z,42.805,6.029,13.2955,4.59953,2469.984,2019-7-25T02:15:28Z
2019-07-25T00:18:12Z,42.805,6.029,13.2954,4.59954,2469.97,2019-7-25T02:18:31Z
2019-07-25T00:21:15Z,42.805,6.029,13.2956,4.59954,2469.947,2019-7-25T02:21:35Z
2019-07-25T00:24:19Z,42.805,6.029,13.2952,4.59953,2469.97,2019-7-25T02:24:38Z
2019-07-25T00:27:22Z,42.805,6.029,13.2953,4.59954,2469.947,2019-7-25T02:27:41Z
2019-07-25T00:30:25Z,42.805,6.029,13.2954,4.59953,2469.97,2019-7-25T02:30:44Z
2019-07-25T00:33:28Z,42.805,6.029,13.2957,4.59951,2469.947,2019-7-25T02:33:48Z
2019-07-25T00:36:32Z,42.805,6.029,13.2952,4.59953,2469.984,2019-7-25T02:36:51Z
2019-07-25T00:39:35Z,42.805,6.029,13.2954,4.59954,2470.007,2019-7-25T02:39:54Z
2019-07-25T00:42:38Z,42.805,6.029,13.2958,4.59952,2469.947,2019-7-25T02:42:57Z
2019-07-25T00:45:41Z,42.805,6.029,13.2961,4.59954,2469.97,2019-7-25T02:46:00Z
2019-07-25T00:48:44Z,42.805,6.029,13.2953,4.59954,2469.97,2019-7-25T02:49:03Z
2019-07-25T00:51:48Z,42.805,6.029,13.2953,4.59953,2469.96,2019-7-25T02:52:07Z
2019-07-25T00:54:51Z,42.805,6.029,13.2951,4.59956,2469.984,2019-7-25T02:55:10Z
2019-07-25T00:57:54Z,42.805,6.029,13.2952,4.59954,2469.947,2019-7-25T02:58:13Z
2019-07-25T01:00:57Z,42.805,6.029,13.2955,4.59954,2469.947,2019-7-25T03:01:16Z
2019-07-25T01:04:01Z,42.805,6.029,13.2953,4.59953,2469.96,2019-7-25T03:04:20Z
2019-07-25T01:07:04Z,42.805,6.029,13.2953,4.59954,2469.97,2019-7-25T03:07:23Z
2019-07-25T01:10:07Z,42.805,6.029,13.2955,4.59954,2469.947,2019-7-25T03:10:26Z
2019-07-25T01:13:10Z,42.805,6.029,13.2953,4.59952,2469.96,2019-7-25T03:13:29Z
2019-07-25T01:16:13Z,42.805,6.029,13.2956,4.59955,2469.937,2019-7-25T03:16:32Z
2019-07-25T01:19:16Z,42.805,6.029,13.2957,4.59955,2469.96,2019-7-25T03:19:35Z
2019-07-25T01:22:20Z,42.805,6.029,13.2953,4.59953,2469.947,2019-7-25T03:22:39Z
2019-07-25T01:25:23Z,42.805,6.029,13.2949,4.59953,2469.984,2019-7-25T03:25:42Z
2019-07-25T01:28:26Z,42.805,6.029,13.2953,4.59953,2469.947,2019-7-25T03:28:45Z
2019-07-25T01:31:29Z,42.805,6.029,13.2953,4.59953,2469.984,2019-7-25T03:31:48Z
2019-07-25T01:34:32Z,42.805,6.029,13.2956,4.59953,2469.923,2019-7-25T03:34:52Z
2019-07-25T01:37:36Z,42.805,6.029,13.2957,4.59954,2469.923,2019-7-25T03:37:55Z
2019-07-25T01:40:39Z,42.805,6.029,13.2953,4.59954,2469.947,2019-7-25T03:40:58Z
2019-07-25T01:43:42Z,42.805,6.029,13.2950,4.59954,2469.97,2019-7-25T03:44:01Z
2019-07-25T01:46:45Z,42.805,6.029,13.2953,4.59954,2469.96,2019-7-25T03:47:04Z
2019-07-25T01:49:48Z,42.805,6.029,13.2955,4.59953,2469.947,2019-7-25T03:50:07Z
2019-07-25T01:52:52Z,42.805,6.029,13.2956,4.59954,2469.984,2019-7-25T03:53:11Z
2019-07-25T01:55:55Z,42.805,6.029,13.2956,4.59954,2469.96,2019-7-25T03:56:14Z
2019-07-25T01:58:58Z,42.805,6.029,13.2952,4.59952,2469.947,2019-7-25T03:59:17Z
2019-07-25T02:02:01Z,42.805,6.029,13.2957,4.59952,2469.96,2019-7-25T04:02:20Z
2019-07-25T02:05:04Z,42.805,6.029,13.2953,4.59954,2469.96,2019-7-25T04:05:23Z
2019-07-25T02:08:08Z,42.805,6.029,13.2953,4.59955,2469.97,2019-7-25T04:08:27Z
2019-07-25T02:11:11Z,42.805,6.029,13.2957,4.59954,2469.947,2019-7-25T04:11:30Z
2019-07-25T02:14:14Z,42.805,6.029,13.2956,4.59954,2469.97,2019-7-25T04:14:33Z
2019-07-25T02:17:17Z,42.805,6.029,13.2956,4.59954,2469.97,2019-7-25T04:17:36Z
2019-07-25T02:20:20Z,42.805,6.029,13.2955,4.59953,2469.947,2019-7-25T04:20:39Z
2019-07-25T02:23:23Z,42.805,6.029,13.2953,4.59953,2469.947,2019-7-25T04:23:43Z
2019-07-25T02:26:27Z,42.805,6.029,13.2952,4.59952,2469.947,2019-7-25T04:26:46Z
2019-07-25T02:29:30Z,42.805,6.029,13.2953,4.59953,2469.937,2019-7-25T04:29:49Z
2019-07-25T02:32:33Z,42.805,6.029,13.2952,4.59952,2469.9,2019-7-25T04:32:52Z
2019-07-25T02:35:36Z,42.805,6.029,13.2952,4.59952,2469.947,2019-7-25T04:35:55Z
2019-07-25T02:38:39Z,42.805,6.029,13.2954,4.59952,2469.947,2019-7-25T04:38:59Z
2019-07-25T02:41:43Z,42.805,6.029,13.2957,4.59952,2469.97,2019-7-25T04:42:02Z
2019-07-25T02:44:46Z,42.805,6.029,13.2952,4.59952,2469.923,2019-7-25T04:45:05Z
2019-07-25T02:47:49Z,42.805,6.029,13.2953,4.59953,2469.937,2019-7-25T04:48:08Z
2019-07-25T02:50:52Z,42.805,6.029,13.2953,4.59954,2469.937,2019-7-25T04:51:11Z
2019-07-25T02:53:55Z,42.805,6.029,13.2954,4.59954,2469.947,2019-7-25T04:54:14Z
2019-07-25T02:56:59Z,42.805,6.029,13.2951,4.59956,2469.947,2019-7-25T04:57:18Z
2019-07-25T03:00:02Z,42.805,6.029,13.2961,4.59954,2469.96,2019-7-25T05:00:21Z
2019-07-25T03:03:05Z,42.805,6.029,13.2956,4.59954,2469.923,2019-7-25T05:03:24Z
2019-07-25T03:06:08Z,42.805,6.029,13.2953,4.59954,2469.96,2019-7-25T05:06:27Z
2019-07-25T03:09:11Z,42.805,6.029,13.2953,4.59953,2469.923,2019-7-25T05:09:30Z
2019-07-25T03:12:14Z,42.805,6.029,13.2952,4.59954,2469.937,2019-7-25T05:12:34Z
2019-07-25T03:15:18Z,42.805,6.029,13.2952,4.59954,2469.923,2019-7-25T05:15:37Z
2019-07-25T03:18:21Z,42.805,6.029,13.2955,4.59955,2469.937,2019-7-25T05:18:40Z
2019-07-25T03:21:24Z,42.805,6.029,13.2957,4.59954,2469.923,2019-7-25T05:21:43Z
2019-07-25T03:24:27Z,42.805,6.029,13.2953,4.59954,2469.886,2019-7-25T05:24:46Z
2019-07-25T03:27:30Z,42.805,6.029,13.2954,4.59954,2469.947,2019-7-25T05:27:50Z
2019-07-25T03:30:34Z,42.805,6.029,13.2954,4.59954,2469.947,2019-7-25T05:30:53Z
2019-07-25T03:33:37Z,42.805,6.029,13.2952,4.59955,2469.96,2019-7-25T05:33:56Z
2019-07-25T03:36:40Z,42.805,6.029,13.2954,4.59954,2469.9,2019-7-25T05:36:59Z
2019-07-25T03:39:43Z,42.805,6.029,13.2955,4.59953,2469.9,2019-7-25T05:40:02Z
2019-07-25T03:42:46Z,42.805,6.029,13.2955,4.59953,2469.9,2019-7-25T05:43:05Z
2019-07-25T03:45:50Z,42.805,6.029,13.2952,4.59953,2469.9,2019-7-25T05:46:09Z
2019-07-25T03:48:53Z,42.805,6.029,13.2954,4.59954,2469.923,2019-7-25T05:49:12Z
2019-07-25T03:51:56Z,42.805,6.029,13.2953,4.59954,2469.89,2019-7-25T05:52:15Z
2019-07-25T03:54:59Z,42.805,6.029,13.2957,4.59954,2469.937,2019-7-25T05:55:18Z
2019-07-25T03:58:03Z,42.805,6.029,13.2956,4.59954,2469.9,2019-7-25T05:58:22Z
2019-07-25T04:01:06Z,42.805,6.029,13.2956,4.59953,2469.9,2019-7-25T06:01:25Z
2019-07-25T04:04:09Z,42.805,6.029,13.2952,4.59955,2469.876,2019-7-25T06:04:28Z
2019-07-25T04:07:12Z,42.805,6.029,13.2953,4.59954,2469.9,2019-7-25T06:07:31Z
2019-07-25T04:10:15Z,42.805,6.029,13.2952,4.59953,2469.876,2019-7-25T06:10:34Z
2019-07-25T04:13:18Z,42.805,6.029,13.2954,4.59953,2469.853,2019-7-25T06:13:38Z
2019-07-25T04:16:22Z,42.805,6.029,13.2961,4.59954,2469.876,2019-7-25T06:16:41Z
2019-07-25T04:19:25Z,42.805,6.029,13.2952,4.59954,2469.876,2019-7-25T06:19:44Z
2019-07-25T04:22:28Z,42.805,6.029,13.2953,4.59952,2469.914,2019-7-25T06:22:47Z
2019-07-25T04:25:31Z,42.805,6.029,13.2953,4.59954,2469.914,2019-7-25T06:25:50Z
2019-07-25T04:28:34Z,42.805,6.029,13.2957,4.59951,2469.914,2019-7-25T06:28:53Z
2019-07-25T04:31:38Z,42.805,6.029,13.2953,4.59953,2469.9,2019-7-25T06:31:57Z
2019-07-25T04:34:41Z,42.805,6.029,13.2955,4.59956,2469.89,2019-7-25T06:35:00Z
2019-07-25T04:37:45Z,42.805,6.029,13.2955,4.59954,2469.927,2019-7-25T06:38:04Z
2019-07-25T04:40:48Z,42.805,6.029,13.2954,4.59953,2469.89,2019-7-25T06:41:07Z
2019-07-25T04:43:51Z,42.805,6.029,13.2951,4.59951,2469.876,2019-7-25T06:44:10Z
2019-07-25T04:46:54Z,42.805,6.029,13.2956,4.59952,2469.876,2019-7-25T06:47:13Z
2019-07-25T04:49:57Z,42.805,6.029,13.2953,4.59952,2469.89,2019-7-25T06:50:16Z
2019-07-25T04:53:00Z,42.805,6.029,13.2949,4.59952,2469.853,2019-7-25T06:53:19Z
2019-07-25T04:56:04Z,42.805,6.029,13.2954,4.59952,2469.876,2019-7-25T06:56:23Z
2019-07-25T04:59:07Z,42.805,6.029,13.2954,4.59956,2469.9,2019-7-25T06:59:26Z
2019-07-25T05:02:10Z,42.805,6.029,13.2955,4.59953,2469.876,2019-7-25T07:02:29Z
2019-07-25T05:05:13Z,42.805,6.029,13.2953,4.59954,2469.876,2019-7-25T07:05:32Z
2019-07-25T05:08:16Z,42.805,6.029,13.2952,4.59952,2469.876,2019-7-25T07:08:35Z
2019-07-25T05:11:19Z,42.805,6.029,13.2951,4.59952,2469.914,2019-7-25T07:11:39Z
2019-07-25T05:14:23Z,42.805,6.029,13.2952,4.59954,2469.876,2019-7-25T07:14:42Z
2019-07-25T05:17:26Z,42.805,6.029,13.2952,4.59952,2469.876,2019-7-25T07:17:45Z
2019-07-25T05:20:29Z,42.805,6.029,13.2957,4.59951,2469.89,2019-7-25T07:20:48Z
2019-07-25T05:23:32Z,42.805,6.029,13.2951,4.59953,2469.876,2019-7-25T07:23:51Z
2019-07-25T05:26:35Z,42.805,6.029,13.2950,4.59952,2469.839,2019-7-25T07:26:55Z
2019-07-25T05:29:39Z,42.805,6.029,13.2952,4.59951,2469.89,2019-7-25T07:29:58Z
2019-07-25T05:32:42Z,42.805,6.029,13.2954,4.59953,2469.853,2019-7-25T07:33:01Z
2019-07-25T05:35:45Z,42.805,6.029,13.2952,4.59952,2469.853,2019-7-25T07:36:04Z
2019-07-25T05:38:48Z,42.805,6.029,13.2953,4.59953,2469.853,2019-7-25T07:39:07Z
2019-07-25T05:41:51Z,42.805,6.029,13.2953,4.59951,2469.876,2019-7-25T07:42:10Z
2019-07-25T05:44:54Z,42.805,6.029,13.2953,4.59951,2469.83,2019-7-25T07:45:14Z
2019-07-25T05:47:58Z,42.805,6.029,13.2957,4.59952,2469.867,2019-7-25T07:48:17Z
2019-07-25T05:51:01Z,42.805,6.029,13.2955,4.59951,2469.867,2019-7-25T07:51:20Z
2019-07-25T05:54:04Z,42.805,6.029,13.2952,4.59951,2469.867,2019-7-25T07:54:23Z
2019-07-25T05:57:07Z,42.805,6.029,13.2955,4.59952,2469.853,2019-7-25T07:57:26Z
2019-07-25T06:00:10Z,42.805,6.029,13.2957,4.59952,2469.83,2019-7-25T08:00:29Z
2019-07-25T06:03:14Z,42.805,6.029,13.2952,4.59952,2469.876,2019-7-25T08:03:33Z
2019-07-25T06:06:17Z,42.805,6.029,13.2954,4.59951,2469.867,2019-7-25T08:06:36Z
2019-07-25T06:09:20Z,42.805,6.029,13.2953,4.59951,2469.89,2019-7-25T08:09:39Z
2019-07-25T06:12:23Z,42.805,6.029,13.2956,4.59954,2469.867,2019-7-25T08:12:42Z
2019-07-25T06:15:26Z,42.805,6.029,13.2957,4.59951,2469.867,2019-7-25T08:15:45Z
2019-07-25T06:18:30Z,42.805,6.029,13.2952,4.59951,2469.876,2019-7-25T08:18:49Z
2019-07-25T06:21:33Z,42.805,6.029,13.2953,4.59951,2469.853,2019-7-25T08:21:52Z
2019-07-25T06:24:36Z,42.805,6.029,13.2953,4.59951,2469.853,2019-7-25T08:24:55Z
2019-07-25T06:27:39Z,42.805,6.029,13.2953,4.59951,2469.844,2019-7-25T08:27:58Z
2019-07-25T06:30:42Z,42.805,6.029,13.2953,4.59951,2469.876,2019-7-25T08:31:02Z
2019-07-25T06:33:46Z,42.805,6.029,13.2953,4.59951,2469.853,2019-7-25T08:34:05Z
2019-07-25T06:36:49Z,42.805,6.029,13.2953,4.59951,2469.83,2019-7-25T08:37:08Z
2019-07-25T06:39:52Z,42.805,6.029,13.2952,4.59951,2469.89,2019-7-25T08:40:11Z
2019-07-25T06:42:55Z,42.805,6.029,13.2953,4.59953,2469.853,2019-7-25T08:43:14Z
2019-07-25T06:45:58Z,42.805,6.029,13.2954,4.59953,2469.83,2019-7-25T08:46:17Z
2019-07-25T06:49:01Z,42.805,6.029,13.2948,4.59950,2469.83,2019-7-25T08:49:21Z
2019-07-25T06:52:05Z,42.805,6.029,13.2950,4.59950,2469.853,2019-7-25T08:52:24Z
2019-07-25T06:55:08Z,42.805,6.029,13.2949,4.59951,2469.853,2019-7-25T08:55:27Z
2019-07-25T06:58:11Z,42.805,6.029,13.2952,4.59950,2469.867,2019-7-25T08:58:30Z
2019-07-25T07:01:15Z,42.805,6.029,13.2949,4.59951,2469.867,2019-7-25T09:01:34Z
2019-07-25T07:04:18Z,42.805,6.029,13.2953,4.59950,2469.853,2019-7-25T09:04:37Z
2019-07-25T07:07:21Z,42.805,6.029,13.2952,4.59952,2469.89,2019-7-25T09:07:40Z
2019-07-25T07:10:24Z,42.805,6.029,13.2953,4.59950,2469.867,2019-7-25T09:10:43Z
2019-07-25T07:13:27Z,42.805,6.029,13.2952,4.59953,2469.821,2019-7-25T09:13:46Z
2019-07-25T07:16:30Z,42.805,6.029,13.2952,4.59951,2469.867,2019-7-25T09:16:49Z
2019-07-25T07:19:34Z,42.805,6.029,13.2953,4.59951,2469.853,2019-7-25T09:19:53Z
2019-07-25T07:22:37Z,42.805,6.029,13.2950,4.59951,2469.853,2019-7-25T09:22:56Z
2019-07-25T07:25:40Z,42.805,6.029,13.2952,4.59952,2469.867,2019-7-25T09:25:59Z
2019-07-25T07:28:43Z,42.805,6.029,13.2957,4.59951,2469.867,2019-7-25T09:29:02Z
2019-07-25T07:31:46Z,42.805,6.029,13.2956,4.59951,2469.867,2019-7-25T09:32:06Z
2019-07-25T07:34:50Z,42.805,6.029,13.2951,4.59952,2469.867,2019-7-25T09:35:09Z
2019-07-25T07:37:53Z,42.805,6.029,13.2953,4.59951,2469.867,2019-7-25T09:38:12Z
2019-07-25T07:40:56Z,42.805,6.029,13.2953,4.59952,2469.89,2019-7-25T09:41:15Z
2019-07-25T07:43:59Z,42.805,6.029,13.2950,4.59951,2469.853,2019-7-25T09:44:18Z
2019-07-25T07:47:02Z,42.805,6.029,13.2952,4.59951,2469.853,2019-7-25T09:47:21Z
2019-07-25T07:50:06Z,42.805,6.029,13.2952,4.59953,2469.844,2019-7-25T09:50:25Z
2019-07-25T07:53:09Z,42.805,6.029,13.2952,4.59951,2469.806,2019-7-25T09:53:28Z
2019-07-25T07:56:12Z,42.805,6.029,13.2955,4.59951,2469.853,2019-7-25T09:56:31Z
2019-07-25T07:59:15Z,42.805,6.029,13.2952,4.59953,2469.853,2019-7-25T09:59:34Z
2019-07-25T08:02:18Z,42.805,6.029,13.2954,4.59952,2469.89,2019-7-25T10:02:37Z
2019-07-25T08:05:21Z,42.805,6.029,13.2948,4.59951,2469.853,2019-7-25T10:05:41Z
2019-07-25T08:08:25Z,42.805,6.029,13.2953,4.59951,2469.867,2019-7-25T10:08:44Z
2019-07-25T08:11:28Z,42.805,6.029,13.2953,4.59952,2469.867,2019-7-25T10:11:47Z
2019-07-25T08:14:31Z,42.805,6.029,13.2952,4.59951,2469.844,2019-7-25T10:14:50Z
2019-07-25T08:17:34Z,42.805,6.029,13.2951,4.59952,2469.867,2019-7-25T10:17:53Z
2019-07-25T08:20:37Z,42.805,6.029,13.2952,4.59951,2469.853,2019-7-25T10:20:57Z
2019-07-25T08:23:41Z,42.805,6.029,13.2949,4.59951,2469.9,2019-7-25T10:24:00Z
2019-07-25T08:26:44Z,42.805,6.029,13.2953,4.59951,2469.83,2019-7-25T10:27:03Z
2019-07-25T08:29:47Z,42.805,6.029,13.2950,4.59951,2469.89,2019-7-25T10:30:06Z
2019-07-25T08:32:50Z,42.805,6.029,13.2954,4.59952,2469.867,2019-7-25T10:33:09Z
2019-07-25T08:35:53Z,42.805,6.029,13.2954,4.59951,2469.89,2019-7-25T10:36:12Z
2019-07-25T08:38:56Z,42.805,6.029,13.2953,4.59951,2469.876,2019-7-25T10:39:16Z
2019-07-25T08:42:00Z,42.805,6.029,13.2954,4.59951,2469.83,2019-7-25T10:42:19Z
2019-07-25T08:45:03Z,42.805,6.029,13.2955,4.59951,2469.867,2019-7-25T10:45:22Z
2019-07-25T08:48:06Z,42.805,6.029,13.2952,4.59951,2469.876,2019-7-25T10:48:25Z
2019-07-25T08:51:09Z,42.805,6.029,13.2952,4.59951,2469.853,2019-7-25T10:51:28Z
2019-07-25T08:54:12Z,42.805,6.029,13.2957,4.59951,2469.839,2019-7-25T10:54:32Z
2019-07-25T08:57:16Z,42.805,6.029,13.2952,4.59951,2469.867,2019-7-25T10:57:35Z
2019-07-25T09:00:19Z,42.805,6.029,13.2955,4.59951,2469.867,2019-7-25T11:00:38Z
2019-07-25T09:03:22Z,42.805,6.029,13.2949,4.59952,2469.876,2019-7-25T11:03:41Z
2019-07-25T09:06:25Z,42.805,6.029,13.2956,4.59951,2469.876,2019-7-25T11:06:44Z
2019-07-25T09:09:28Z,42.805,6.029,13.2952,4.59952,2469.867,2019-7-25T11:09:48Z
2019-07-25T09:12:32Z,42.805,6.029,13.2954,4.59951,2469.876,2019-7-25T11:12:51Z
2019-07-25T09:15:35Z,42.805,6.029,13.2954,4.59951,2469.853,2019-7-25T11:15:54Z
2019-07-25T09:18:38Z,42.805,6.029,13.2955,4.59951,2469.853,2019-7-25T11:18:57Z
2019-07-25T09:21:41Z,42.805,6.029,13.2949,4.59950,2469.876,2019-7-25T11:22:00Z
2019-07-25T09:24:44Z,42.805,6.029,13.2955,4.59951,2469.89,2019-7-25T11:25:04Z
2019-07-25T09:27:48Z,42.805,6.029,13.2953,4.59952,2469.83,2019-7-25T11:28:07Z
2019-07-25T09:30:51Z,42.805,6.029,13.2955,4.59951,2469.83,2019-7-25T11:31:10Z
2019-07-25T09:33:54Z,42.805,6.029,13.2955,4.59951,2469.89,2019-7-25T11:34:13Z
2019-07-25T09:36:57Z,42.805,6.029,13.2954,4.59953,2469.876,2019-7-25T11:37:16Z
2019-07-25T09:40:00Z,42.805,6.029,13.2952,4.59954,2469.876,2019-7-25T11:40:19Z
2019-07-25T09:43:04Z,42.805,6.029,13.2952,4.59951,2469.876,2019-7-25T11:43:23Z
2019-07-25T09:46:07Z,42.805,6.029,13.2950,4.59951,2469.853,2019-7-25T11:46:26Z
2019-07-25T09:49:10Z,42.805,6.029,13.2952,4.59952,2469.9,2019-7-25T11:49:29Z
2019-07-25T09:52:13Z,42.805,6.029,13.2950,4.59952,2469.876,2019-7-25T11:52:32Z
2019-07-25T09:55:16Z,42.805,6.029,13.2951,4.59952,2469.914,2019-7-25T11:55:35Z
2019-07-25T09:58:20Z,42.805,6.029,13.2955,4.59951,2469.853,2019-7-25T11:58:39Z
2019-07-25T10:01:23Z,42.805,6.029,13.2955,4.59952,2469.914,2019-7-25T12:01:42Z
2019-07-25T10:04:26Z,42.805,6.029,13.2949,4.59951,2469.876,2019-7-25T12:04:45Z
2019-07-25T10:07:29Z,42.805,6.029,13.2953,4.59953,2469.867,2019-7-25T12:07:48Z
2019-07-25T10:10:32Z,42.805,6.029,13.2952,4.59953,2469.876,2019-7-25T12:10:51Z
2019-07-25T10:13:36Z,42.805,6.029,13.2952,4.59954,2469.876,2019-7-25T12:13:55Z
2019-07-25T10:16:39Z,42.805,6.029,13.2953,4.59951,2469.9,2019-7-25T12:16:58Z
2019-07-25T10:19:42Z,42.805,6.029,13.2953,4.59951,2469.89,2019-7-25T12:20:01Z
2019-07-25T10:22:45Z,42.805,6.029,13.2950,4.59951,2469.89,2019-7-25T12:23:04Z
2019-07-25T10:25:48Z,42.805,6.029,13.2952,4.59951,2469.89,2019-7-25T12:26:07Z
2019-07-25T10:28:51Z,42.805,6.029,13.2952,4.59954,2469.914,2019-7-25T12:29:11Z
2019-07-25T10:31:55Z,42.805,6.029,13.2949,4.59954,2469.89,2019-7-25T12:32:14Z
2019-07-25T10:34:58Z,42.805,6.029,13.2948,4.59952,2469.9,2019-7-25T12:35:17Z
2019-07-25T10:38:01Z,42.805,6.029,13.2953,4.59952,2469.914,2019-7-25T12:38:20Z
2019-07-25T10:41:04Z,42.805,6.029,13.2952,4.59952,2469.914,2019-7-25T12:41:23Z
2019-07-25T10:44:07Z,42.805,6.029,13.2952,4.59952,2469.914,2019-7-25T12:44:27Z
2019-07-25T10:47:11Z,42.805,6.029,13.2954,4.59952,2469.914,2019-7-25T12:47:30Z
2019-07-25T10:50:14Z,42.805,6.029,13.2952,4.59952,2469.914,2019-7-25T12:50:33Z
2019-07-25T10:53:17Z,42.805,6.029,13.2952,4.59953,2469.89,2019-7-25T12:53:36Z
2019-07-25T10:56:20Z,42.805,6.029,13.2956,4.59953,2469.876,2019-7-25T12:56:39Z
2019-07-25T10:59:23Z,42.805,6.029,13.2953,4.59954,2469.876,2019-7-25T12:59:42Z
2019-07-25T11:02:27Z,42.805,6.029,13.2950,4.59952,2469.9,2019-7-25T13:02:46Z
2019-07-25T11:05:30Z,42.805,6.029,13.2952,4.59954,2469.9,2019-7-25T13:05:49Z
2019-07-25T11:08:33Z,42.805,6.029,13.2955,4.59953,2469.9,2019-7-25T13:08:52Z
2019-07-25T11:11:36Z,42.805,6.029,13.2953,4.59954,2469.9,2019-7-25T13:11:55Z
2019-07-25T11:14:39Z,42.805,6.029,13.2952,4.59951,2469.9,2019-7-25T13:14:58Z
2019-07-25T11:17:43Z,42.805,6.029,13.2955,4.59953,2469.914,2019-7-25T13:18:02Z
2019-07-25T11:20:46Z,42.805,6.029,13.2955,4.59952,2469.923,2019-7-25T13:21:05Z
2019-07-25T11:23:49Z,42.805,6.029,13.2955,4.59953,2469.9,2019-7-25T13:24:08Z
2019-07-25T11:26:52Z,42.805,6.029,13.2951,4.59952,2469.9,2019-7-25T13:27:11Z
2019-07-25T11:29:55Z,42.805,6.029,13.2953,4.59952,2469.89,2019-7-25T13:30:14Z
2019-07-25T11:32:59Z,42.805,6.029,13.2955,4.59951,2469.9,2019-7-25T13:33:18Z
2019-07-25T11:36:02Z,42.805,6.029,13.2955,4.59951,2469.876,2019-7-25T13:36:21Z
2019-07-25T11:39:05Z,42.805,6.029,13.2955,4.59951,2469.9,2019-7-25T13:39:24Z
2019-07-25T11:42:08Z,42.805,6.029,13.2953,4.59952,2469.914,2019-7-25T13:42:27Z
2019-07-25T11:45:11Z,42.805,6.029,13.2953,4.59951,2469.923,2019-7-25T13:45:30Z
2019-07-25T11:48:14Z,42.805,6.029,13.2957,4.59951,2469.923,2019-7-25T13:48:34Z
2019-07-25T11:51:18Z,42.805,6.029,13.2953,4.59952,2469.9,2019-7-25T13:51:37Z
2019-07-25T11:54:21Z,42.805,6.029,13.2952,4.59951,2469.9,2019-7-25T13:54:40Z
2019-07-25T11:57:24Z,42.805,6.029,13.2953,4.59951,2469.9,2019-7-25T13:57:43Z
2019-07-25T12:00:27Z,42.805,6.029,13.2957,4.59950,2469.9,2019-7-25T14:00:46Z
2019-07-25T12:03:31Z,42.805,6.029,13.2953,4.59951,2469.876,2019-7-25T14:03:50Z
2019-07-25T12:06:34Z,42.805,6.029,13.2949,4.59951,2469.914,2019-7-25T14:06:53Z
2019-07-25T12:09:37Z,42.805,6.029,13.2957,4.59952,2469.9,2019-7-25T14:09:56Z
2019-07-25T12:12:40Z,42.805,6.029,13.2953,4.59951,2469.923,2019-7-25T14:12:59Z
2019-07-25T12:15:43Z,42.805,6.029,13.2955,4.59952,2469.923,2019-7-25T14:16:02Z
2019-07-25T12:18:46Z,42.805,6.029,13.2953,4.59951,2469.923,2019-7-25T14:19:06Z
2019-07-25T12:21:50Z,42.805,6.029,13.2955,4.59952,2469.89,2019-7-25T14:22:09Z
2019-07-25T12:24:53Z,42.805,6.029,13.2951,4.59952,2469.914,2019-7-25T14:25:12Z
2019-07-25T12:27:56Z,42.805,6.029,13.2953,4.59951,2469.9,2019-7-25T14:28:15Z
2019-07-25T12:30:59Z,42.805,6.029,13.2953,4.59951,2469.923,2019-7-25T14:31:18Z
2019-07-25T12:34:02Z,42.805,6.029,13.2953,4.59951,2469.923,2019-7-25T14:34:22Z
2019-07-25T12:37:06Z,42.805,6.029,13.2952,4.59951,2469.923,2019-7-25T14:37:25Z
2019-07-25T12:40:09Z,42.805,6.029,13.2953,4.59951,2469.923,2019-7-25T14:40:28Z
2019-07-25T12:43:13Z,42.805,6.029,13.2951,4.59951,2469.937,2019-7-25T14:43:32Z
2019-07-25T12:46:16Z,42.805,6.029,13.2946,4.59951,2469.923,2019-7-25T14:46:35Z
2019-07-25T12:49:19Z,42.805,6.029,13.2952,4.59951,2469.923,2019-7-25T14:49:38Z
2019-07-25T12:52:22Z,42.805,6.029,13.2951,4.59951,2469.9,2019-7-25T14:52:41Z
2019-07-25T12:55:25Z,42.805,6.029,13.2951,4.59952,2469.923,2019-7-25T14:55:44Z
2019-07-25T12:58:28Z,42.805,6.029,13.2951,4.59951,2469.914,2019-7-25T14:58:48Z
2019-07-25T13:01:32Z,42.805,6.029,13.2950,4.59951,2469.923,2019-7-25T15:01:51Z
2019-07-25T13:04:35Z,42.805,6.029,13.2954,4.59951,2469.9,2019-7-25T15:04:54Z
2019-07-25T13:07:38Z,42.805,6.029,13.2952,4.59951,2469.914,2019-7-25T15:07:57Z
2019-07-25T13:10:41Z,42.805,6.029,13.2955,4.59952,2469.914,2019-7-25T15:11:00Z
2019-07-25T13:13:44Z,42.805,6.029,13.2957,4.59952,2469.9,2019-7-25T15:14:04Z
2019-07-25T13:16:48Z,42.805,6.029,13.2950,4.59951,2469.914,2019-7-25T15:17:07Z
2019-07-25T13:19:51Z,42.805,6.029,13.2949,4.59952,2469.9,2019-7-25T15:20:10Z
2019-07-25T13:22:54Z,42.805,6.029,13.2953,4.59951,2469.9,2019-7-25T15:23:13Z
2019-07-25T13:25:57Z,42.805,6.029,13.2948,4.59951,2469.947,2019-7-25T15:26:16Z
2019-07-25T13:29:00Z,42.805,6.029,13.2954,4.59953,2469.914,2019-7-25T15:29:20Z
2019-07-25T13:32:04Z,42.805,6.029,13.2952,4.59951,2469.914,2019-7-25T15:32:23Z
2019-07-25T13:35:07Z,42.805,6.029,13.2954,4.59950,2469.923,2019-7-25T15:35:26Z
2019-07-25T13:38:10Z,42.805,6.029,13.2952,4.59951,2469.914,2019-7-25T15:38:29Z
2019-07-25T13:41:13Z,42.805,6.029,13.2955,4.59951,2469.914,2019-7-25T15:41:32Z
2019-07-25T13:44:16Z,42.805,6.029,13.2951,4.59951,2469.9,2019-7-25T15:44:36Z
2019-07-25T13:47:20Z,42.805,6.029,13.2954,4.59951,2469.9,2019-7-25T15:47:39Z
2019-07-25T13:50:23Z,42.805,6.029,13.2954,4.59951,2469.914,2019-7-25T15:50:42Z
2019-07-25T13:53:26Z,42.805,6.029,13.2955,4.59951,2469.923,2019-7-25T15:53:45Z
2019-07-25T13:56:29Z,42.805,6.029,13.2953,4.59951,2469.937,2019-7-25T15:56:48Z
2019-07-25T13:59:32Z,42.805,6.029,13.2952,4.59951,2469.937,2019-7-25T15:59:52Z
2019-07-25T14:02:36Z,42.805,6.029,13.2955,4.59951,2469.923,2019-7-25T16:02:55Z
2019-07-25T14:05:39Z,42.805,6.029,13.2950,4.59952,2469.914,2019-7-25T16:05:58Z
2019-07-25T14:08:42Z,42.805,6.029,13.2953,4.59952,2469.937,2019-7-25T16:09:01Z
2019-07-25T14:11:45Z,42.805,6.029,13.2955,4.59951,2469.923,2019-7-25T16:12:04Z
2019-07-25T14:14:48Z,42.805,6.029,13.2952,4.59951,2469.9,2019-7-25T16:15:08Z
2019-07-25T14:17:52Z,42.805,6.029,13.2953,4.59952,2469.923,2019-7-25T16:18:11Z
2019-07-25T14:20:55Z,42.805,6.029,13.2949,4.59950,2469.9,2019-7-25T16:21:14Z
2019-07-25T14:23:58Z,42.805,6.029,13.2952,4.59951,2469.937,2019-7-25T16:24:17Z
2019-07-25T14:27:01Z,42.805,6.029,13.2955,4.59951,2469.914,2019-7-25T16:27:20Z
2019-07-25T14:30:04Z,42.805,6.029,13.2953,4.59951,2469.937,2019-7-25T16:30:23Z
2019-07-25T14:33:08Z,42.805,6.029,13.2955,4.59952,2469.937,2019-7-25T16:33:27Z
2019-07-25T14:36:11Z,42.805,6.029,13.2950,4.59952,2469.914,2019-7-25T16:36:30Z
2019-07-25T14:39:14Z,42.805,6.029,13.2952,4.59951,2469.923,2019-7-25T16:39:33Z
2019-07-25T14:42:17Z,42.805,6.029,13.2953,4.59951,2469.923,2019-7-25T16:42:36Z
2019-07-25T14:45:20Z,42.805,6.029,13.2948,4.59951,2469.923,2019-7-25T16:45:39Z
2019-07-25T14:48:23Z,42.805,6.029,13.2953,4.59951,2469.923,2019-7-25T16:48:43Z
2019-07-25T14:51:27Z,42.805,6.029,13.2952,4.59951,2469.9,2019-7-25T16:51:46Z
2019-07-25T14:54:30Z,42.805,6.029,13.2949,4.59951,2469.89,2019-7-25T16:54:49Z
2019-07-25T14:57:33Z,42.805,6.029,13.2953,4.59951,2469.923,2019-7-25T16:57:52Z
2019-07-25T15:00:36Z,42.805,6.029,13.2952,4.59951,2469.9,2019-7-25T17:00:55Z
2019-07-25T15:03:40Z,42.805,6.029,13.2953,4.59951,2469.937,2019-7-25T17:03:59Z
2019-07-25T15:06:43Z,42.805,6.029,13.2948,4.59951,2469.9,2019-7-25T17:07:02Z
2019-07-25T15:09:46Z,42.805,6.029,13.2952,4.59951,2469.9,2019-7-25T17:10:05Z
2019-07-25T15:12:49Z,42.805,6.029,13.2953,4.59951,2469.937,2019-7-25T17:13:08Z
2019-07-25T15:15:52Z,42.805,6.029,13.2954,4.59953,2469.876,2019-7-25T17:16:11Z